Location: Unspecified
(0.0000°N, 0.0000°E)
Time: 11:36:38
(UTC+00:00)

A-11 Canister half - Visible Passes

Search period start: 13 June 2024 00:00
Search period end: 23 June 2024 00:00
Orbit: 1515 x 1685 km, 47.2° (Epoch: 12 June)

Date Brightness Start Highest point End Pass type
(mag) Time Alt. Az. Time Alt. Az. Time Alt. Az.
13 Jun 11.0 03:17:07 10° N 03:23:37 21° NE 03:30:05 10° E visible
13 Jun 8.9 05:19:14 10° NW 05:28:28 76° SW 05:37:45 10° SE visible
13 Jun 10.9 18:10:29 10° WSW 18:19:34 37° NW 18:28:37 10° NNE visible
14 Jun 11.0 02:54:33 10° N 03:00:36 19° NE 03:06:36 10° E visible
14 Jun 8.9 04:56:14 10° NW 05:05:30 82° SW 05:14:48 10° SE visible
15 Jun 11.1 02:32:02 10° N 02:37:35 17° NE 02:43:02 10° E visible
15 Jun 8.9 04:33:16 10° NW 04:42:33 89° SW 04:51:51 10° SE visible
16 Jun 11.1 02:09:37 10° NNE 02:14:32 15° NE 02:19:23 10° ENE visible
16 Jun 8.9 04:10:18 10° NW 04:19:35 85° NE 04:28:53 10° SE visible
17 Jun 11.2 01:47:19 10° NNE 01:51:28 14° NE 01:55:34 10° ENE visible
17 Jun 9.0 03:47:21 10° NW 03:56:38 78° NE 04:05:53 10° SE visible
18 Jun 11.2 01:25:15 10° NNE 01:28:24 12° NE 01:31:32 10° ENE visible
18 Jun 9.0 03:24:25 10° NNW 03:33:41 72° NE 03:42:52 10° SE visible
18 Jun 9.9 05:31:44 10° W 05:38:28 22° SW 05:45:17 10° S visible
19 Jun 11.2 01:03:47 10° NNE 01:05:19 10° NE 01:06:52 10° NE visible
19 Jun 9.1 03:01:29 10° NNW 03:10:43 66° NE 03:19:51 10° SE visible
19 Jun 9.7 05:08:21 10° W 05:15:27 25° SW 05:22:38 10° S visible
20 Jun 9.4 02:49:40 52° E 02:49:40 52° E 02:56:48 10° SE visible
20 Jun 9.6 04:48:10 20° W 04:52:28 27° SW 04:59:57 10° S visible
21 Jun 10.5 02:30:59 22° ESE 02:30:59 22° ESE 02:33:44 10° SE visible
21 Jun 9.5 04:29:23 30° SW 04:29:28 30° SW 04:37:14 10° S visible
22 Jun11.202:11:18SE02:11:18SE01:50:53NNWvisible
22 Jun 9.8 04:09:39 27° SSW 04:09:39 27° SSW 04:14:30 10° SSE visible
